#timestamp,LO_Frequency,Hit,StdDev 
1570676415.0,286047002.5,Y
1570676415.9,286047002.5,P
1570676435.8,286047002.1,N
1570676455.6,286047004.2,P
1570676475.4,286047003.7,N
1570676495.3,286047003.7,N
1570676515.1,286047001.6,N
1570676535.8,286047000.5,N
1570676555.7,286046998.1,N
1570676575.5,286046998.2,N
1570676595.4,286046998.5,N
1570676615.2,286046999.6,N
1570676635.0,286046996.7,N
1570676635.9,286046996.7,N
1570676655.8,286046997.0,N
1570676675.6,286046999.4,N
1570676695.4,286047000.7,N
1570676715.3,286047000.4,N
1570676735.1,286046999.9,N
1570676755.9,286047000.2,N
1570676775.7,286047000.0,N
1570676795.5,286047000.6,N
1570676815.4,286047001.0,N
1570676835.2,286046999.9,N
1570676855.1,286047000.0,N
1570676856.0,286047000.0,N
1570676875.8,286047002.6,N
1570676895.6,286047001.8,N
1570676915.5,286047002.7,N
1570676935.3,286047001.9,N
1570676955.1,286047002.5,N
1570676975.9,286047000.6,N
1570676995.7,286046998.1,N
1570677015.6,286046999.6,N
1570677035.4,286046999.4,N
1570677055.2,286046999.6,N
1570677075.1,286046998.8,N
1570677076.0,286046998.8,N
1570677095.8,286047000.9,N
1570677115.7,286046999.8,N
1570677135.5,286047000.3,N
1570677155.3,286047002.7,N
1570677175.2,286047001.5,N
1570677195.0,286047002.3,N
1570677195.9,286047002.3,N
1570677215.8,286047000.5,N
1570677235.6,286047000.2,N
1570677255.4,286046999.7,N
1570677275.3,286047002.0,N
1570677295.1,286047000.3,N
1570677315.8,286047002.5,N
1570677335.7,286047000.0,N
1570677355.5,286047002.0,N
1570677375.4,286047002.6,N
1570677395.2,286047004.1,Y
1570677415.0,286047004.4,P
1570677415.9,286047004.4,N
1570677435.8,286047003.9,N
1570677455.6,286047003.7,N
1570677475.5,286047002.0,N
1570677495.3,286047002.5,N
1570677515.1,286047002.5,N
1570677535.9,286046999.8,N
1570677555.7,286047000.1,N
1570677575.5,286047002.7,N
1570677595.4,286047001.6,N
1570677615.2,286047001.3,N
1570677635.1,286047004.4,N
1570677636.0,286047004.4,N
1570677655.8,286047001.7,N
1570677675.6,286047003.9,N
1570677695.5,286047005.5,Y
1570677715.3,286046999.8,P
1570677735.2,286046998.1,N
1570677755.9,286046998.7,N
1570677775.7,286046998.9,N
1570677795.6,286046999.4,N
1570677815.4,286046998.9,N
1570677835.2,286046996.5,N
1570677855.1,286046997.6,N
1570677856.0,286046997.6,N
1570677875.8,286046997.9,N
1570677895.7,286046996.2,N
1570677915.5,286046997.6,N
1570677935.3,286046995.4,N
1570677955.2,286046997.8,N
1570677975.0,286046997.0,N
1570677975.9,286046997.0,N
1570677995.8,286046997.3,N
1570678015.6,286046999.5,N
1570678035.4,286046998.8,N
1570678055.3,286046998.1,N
1570678075.1,286046999.3,N
1570678095.8,286046999.4,N
1570678115.7,286046998.9,N
1570678135.5,286046995.0,Y
1570678155.4,286046999.5,P
1570678175.2,286047000.6,N
1570678195.0,286047000.2,N
1570678195.9,286047000.2,N
1570678215.8,286047002.4,N
1570678235.6,286047002.3,N
1570678255.5,286046999.7,N
1570678275.3,286047002.5,N
1570678295.1,286047001.3,N
1570678315.9,286047006.0,Y
1570678335.7,286047004.4,P
1570678355.6,286047003.6,N
1570678375.4,286047004.1,N
1570678395.2,286047003.2,N
1570678415.1,286047002.8,N
1570678416.0,286047002.8,N
1570678435.8,286046998.4,N
1570678455.7,286046999.2,N
1570678475.5,286046999.3,N
1570678495.3,286046998.9,N
1570678515.2,286046998.4,N
1570678535.0,286047000.7,N
1570678535.9,286047000.7,N
1570678555.8,286047000.2,N
1570678575.6,286047002.3,N
1570678595.4,286047000.2,N
1570678615.3,286047000.3,N
1570678635.1,286047001.2,N
1570678655.9,286046998.5,N
1570678675.7,286046998.4,N
1570678695.5,286046998.6,N
1570678715.4,286047001.2,N
1570678735.2,286046999.0,N
1570678755.1,286046997.0,N
1570678756.0,286046997.0,N
1570678775.8,286046996.6,N
1570678795.6,286046998.5,N
1570678815.5,286047001.0,N
1570678835.3,286047000.5,N
1570678855.1,286047000.6,N
1570678875.9,286047002.1,N
1570678895.7,286047001.1,N
1570678915.6,286047002.8,N
1570678935.4,286047003.9,N
1570678955.2,286047001.4,N
1570678975.1,286047000.1,N
1570678976.0,286047000.1,N
1570678995.8,286047002.4,N
1570679015.7,286047002.4,N
1570679035.5,286047003.7,N
1570679055.3,286047004.4,N
1570679075.2,286047000.1,N
1570679095.0,286047001.1,N
1570679095.9,286047001.1,N
1570679115.8,286046998.9,N
1570679135.6,286046996.5,N
1570679155.4,286046999.6,N
1570679175.3,286046997.4,N
1570679195.1,286046997.2,N
1570679215.8,286046996.6,N
1570679235.7,286046998.3,N
1570679255.5,286047000.3,N
1570679275.4,286047002.3,N
1570679295.2,286047002.6,N
1570679315.0,286047002.2,N
1570679315.9,286047002.2,N
1570679335.8,286047002.7,N
1570679355.6,286047002.5,N
1570679375.5,286047002.8,N
1570679395.3,286047000.9,N
1570679415.1,286046998.2,N
1570679435.9,286046998.5,N
1570679455.7,286046997.0,N
1570679475.5,286046996.5,N
1570679495.4,286046997.0,N
1570679515.2,286046998.7,N
1570679535.1,286047000.0,N
1570679536.0,286047000.0,N
1570679555.8,286046999.9,N
1570679575.6,286047002.7,N
1570679595.5,286047003.2,N
1570679615.3,286047003.4,N
1570679635.2,286047005.8,N
1570679655.0,286047005.9,N
1570679655.9,286047005.9,N
1570679675.7,286047004.0,N
1570679695.6,286047001.3,N
1570679715.4,286047001.7,N
1570679735.3,286047003.8,N
1570679755.1,286047001.3,N
1570679775.8,286047001.3,N
1570679795.7,286047001.4,N
1570679815.5,286047002.4,N
1570679835.4,286047002.6,N
1570679855.2,286047002.7,N
1570679875.0,286047001.8,N
1570679875.9,286047001.8,N
1570679895.8,286047004.1,N
1570679915.6,286047003.9,N
1570679935.4,286047003.9,N
1570679955.3,286047004.2,N
1570679975.1,286047003.3,N
1570679995.9,286047002.9,N
